Location: Boston
(42.3580°N, 71.0600°W)
Time: 07:17:23
(UTC-04:00)

ISS - Pass Details

Date: 13 October 2017
Orbit: 401 x 408 km, 51.6° (Epoch: 19 October)

Event Time Altitude Azimuth Distance (km) Brightness Sun altitude
Rises 18:42:14 0° 306° (NW) 2,325 0.9 -7.6°
Reaches altitude 10° 18:44:21 10° 311° (NW) 1,464 -0.3 -8.0°
Maximum altitude 18:47:34 52° 30° (NNE) 508 -3.6 -8.6°
Enters shadow 18:50:31 12° 107° (ESE) 1,361 -1.8 -9.2°
